• En España
  • Lista de países
  • Para 7 días
  • Temperatura del agua
  • Mapa Satelital
  • El tiempo en el mapa
  • Informadores
  • user-avatar
    Iniciar sesión

    Tiempo cada hora Bandar Abbas

    Hoy, 15 Noviembre, Jueves

    Tiempo Temperatura Precipitaciones Viento Presión Humedad
    00:00 +27°C° 0 mm 1 mps 759 mmHg 34%
    01:00 +27°C° 0 mm 1 mps 759 mmHg 34%
    02:00 +27°C° 0 mm 1 mps 760 mmHg 34%
    03:00 +26°C° 0 mm 1 mps 760 mmHg 34%
    04:00 +26°C° 0 mm 1 mps 760 mmHg 36%
    05:00 +26°C° 0 mm 1 mps 760 mmHg 35%
    06:00 +26°C° 0 mm 1 mps 761 mmHg 35%
    07:00 +26°C° 0 mm 1 mps 761 mmHg 35%
    08:00 +28°C° 0 mm 1 mps 761 mmHg 31%
    09:00 +30°C° 0 mm 1 mps 761 mmHg 27%
    10:00 +32°C° 0 mm 2 mps 762 mmHg 23%
    11:00 +34°C° 0 mm 2 mps 762 mmHg 22%
    12:00 +34°C° 0 mm 2 mps 761 mmHg 21%
    13:00 +35°C° 0 mm 3 mps 761 mmHg 20%
    14:00 +35°C° 0 mm 3 mps 761 mmHg 21%
    15:00 +35°C° 0 mm 3 mps 761 mmHg 21%
    16:00 +34°C° 0 mm 3 mps 760 mmHg 23%
    17:00 +33°C° 0 mm 3 mps 761 mmHg 28%
    18:00 +31°C° 0 mm 2 mps 761 mmHg 32%
    19:00 +30°C° 0 mm 2 mps 761 mmHg 37%
    20:00 +29°C° 0 mm 2 mps 761 mmHg 39%
    21:00 +29°C° 0 mm 2 mps 762 mmHg 40%
    22:00 +28°C° 0 mm 2 mps 762 mmHg 42%
    23:00 +28°C° 0 mm 2 mps 762 mmHg 43%

    Mañana, 16 Noviembre, Viernes

    Tiempo Temperatura Precipitaciones Viento Presión Humedad
    00:00 +27°C° 0 mm 2 mps 762 mmHg 43%
    01:00 +27°C° 0 mm 2 mps 762 mmHg 44%
    02:00 +26°C° 0 mm 2 mps 762 mmHg 44%
    03:00 +26°C° 0 mm 2 mps 762 mmHg 45%
    04:00 +26°C° 0 mm 2 mps 762 mmHg 46%
    05:00 +26°C° 0 mm 1 mps 762 mmHg 46%
    06:00 +25°C° 0 mm 1 mps 762 mmHg 46%
    07:00 +25°C° 0 mm 1 mps 762 mmHg 46%
    08:00 +27°C° 0 mm 1 mps 763 mmHg 41%
    09:00 +29°C° 0 mm 1 mps 763 mmHg 36%
    10:00 +31°C° 0 mm 1 mps 763 mmHg 32%
    11:00 +32°C° 0 mm 2 mps 763 mmHg 30%
    12:00 +34°C° 0 mm 2 mps 762 mmHg 28%
    13:00 +35°C° 0 mm 2 mps 762 mmHg 27%
    14:00 +34°C° 0 mm 2 mps 761 mmHg 27%
    15:00 +34°C° 0 mm 2 mps 761 mmHg 28%
    16:00 +34°C° 0 mm 2 mps 761 mmHg 29%
    17:00 +32°C° 0 mm 2 mps 761 mmHg 33%
    18:00 +31°C° 0 mm 1 mps 762 mmHg 38%
    19:00 +30°C° 0 mm 1 mps 762 mmHg 42%
    20:00 +29°C° 0 mm 1 mps 762 mmHg 43%
    21:00 +27°C° 0 mm 0 mps 762 mmHg 43%
    22:00 +27°C° 0 mm 0 mps 762 mmHg 44%
    23:00 +27°C° 0 mm 0 mps 762 mmHg 44%

    Pasado mañana, 17 Noviembre, Sábado

    Tiempo Temperatura Precipitaciones Viento Presión Humedad
    00:00 +26°C° 0 mm 0 mps 762 mmHg 45%
    01:00 +26°C° 0 mm 0 mps 762 mmHg 45%
    02:00 +26°C° 0 mm 0 mps 761 mmHg 45%
    03:00 +25°C° 0 mm 0 mps 761 mmHg 45%
    04:00 +25°C° 0 mm 0 mps 761 mmHg 45%
    05:00 +25°C° 0 mm 0 mps 761 mmHg 45%
    06:00 +25°C° 0 mm 0 mps 761 mmHg 45%
    07:00 +24°C° 0 mm 0 mps 761 mmHg 45%
    08:00 +26°C° 0 mm 0 mps 761 mmHg 40%
    09:00 +28°C° 0 mm 0 mps 762 mmHg 35%
    10:00 +30°C° 0 mm 0 mps 762 mmHg 30%
    11:00 +33°C° 0 mm 1 mps 761 mmHg 28%
    12:00 +35°C° 0 mm 2 mps 760 mmHg 26%
    13:00 +36°C° 0 mm 2 mps 760 mmHg 25%
    14:00 +36°C° 0 mm 3 mps 759 mmHg 25%
    15:00 +36°C° 0 mm 3 mps 759 mmHg 25%
    16:00 +36°C° 0 mm 4 mps 758 mmHg 25%
    17:00 +34°C° 0 mm 4 mps 759 mmHg 30%
    18:00 +33°C° 0 mm 4 mps 759 mmHg 34%
    19:00 +30°C° 0 mm 4 mps 759 mmHg 39%
    20:00 +30°C° 0 mm 3 mps 759 mmHg 41%
    21:00 +29°C° 0 mm 3 mps 759 mmHg 42%
    22:00 +29°C° 0 mm 2 mps 760 mmHg 44%
    23:00 +29°C° 0 mm 2 mps 760 mmHg 44%

    18 Noviembre, Domingo

    Tiempo Temperatura Precipitaciones Viento Presión Humedad
    00:00 +28°C° 0 mm 2 mps 759 mmHg 45%
    01:00 +28°C° 0 mm 2 mps 759 mmHg 45%
    02:00 +27°C° 0 mm 2 mps 759 mmHg 46%
    03:00 +27°C° 0 mm 2 mps 759 mmHg 47%
    04:00 +26°C° 0 mm 2 mps 759 mmHg 47%
    05:00 +26°C° 0 mm 2 mps 759 mmHg 47%
    06:00 +26°C° 0 mm 2 mps 759 mmHg 47%
    07:00 +26°C° 0 mm 1 mps 760 mmHg 47%
    08:00 +28°C° 0 mm 1 mps 760 mmHg 41%
    09:00 +30°C° 0 mm 1 mps 760 mmHg 35%
    10:00 +32°C° 0 mm 1 mps 760 mmHg 28%
    11:00 +32°C° 0 mm 1 mps 760 mmHg 26%
    12:00 +33°C° 0 mm 1 mps 759 mmHg 24%
    13:00 +35°C° 0 mm 2 mps 759 mmHg 22%
    14:00 +35°C° 0 mm 2 mps 758 mmHg 21%
    15:00 +35°C° 0 mm 2 mps 758 mmHg 21%
    16:00 +35°C° 0 mm 3 mps 758 mmHg 20%
    17:00 +33°C° 0 mm 3 mps 758 mmHg 24%
    18:00 +31°C° 0 mm 3 mps 758 mmHg 27%
    19:00 +29°C° 0 mm 3 mps 759 mmHg 31%
    20:00 +29°C° 0 mm 3 mps 759 mmHg 33%
    21:00 +28°C° 0 mm 3 mps 759 mmHg 36%
    22:00 +27°C° 0 mm 3 mps 760 mmHg 39%
    23:00 +27°C° 0 mm 3 mps 760 mmHg 41%

    19 Noviembre, Lunes

    Tiempo Temperatura Precipitaciones Viento Presión Humedad
    00:00 +27°C° 0 mm 3 mps 759 mmHg 44%
    01:00 +26°C° 0 mm 3 mps 759 mmHg 46%
    02:00 +26°C° 0 mm 2 mps 759 mmHg 46%
    03:00 +25°C° 0 mm 2 mps 759 mmHg 46%
    04:00 +25°C° 0 mm 2 mps 759 mmHg 46%
    05:00 +25°C° 0 mm 2 mps 759 mmHg 44%
    06:00 +24°C° 0 mm 1 mps 760 mmHg 42%
    07:00 +24°C° 0 mm 1 mps 760 mmHg 40%
    08:00 +26°C° 0 mm 1 mps 761 mmHg 35%
    09:00 +28°C° 0 mm 1 mps 761 mmHg 29%
    10:00 +30°C° 0 mm 1 mps 761 mmHg 23%
    11:00 +31°C° 0 mm 1 mps 761 mmHg 22%
    12:00 +32°C° 0 mm 1 mps 760 mmHg 20%
    13:00 +32°C° 0 mm 1 mps 760 mmHg 18%
    14:00 +32°C° 0 mm 2 mps 760 mmHg 18%
    15:00 +32°C° 0 mm 2 mps 759 mmHg 18%
    16:00 +34°C° 0 mm 2 mps 759 mmHg 18%
    17:00 +31°C° 0 mm 2 mps 759 mmHg 20%
    18:00 +30°C° 0 mm 2 mps 760 mmHg 23%
    19:00 +28°C° 0 mm 2 mps 760 mmHg 25%
    20:00 +28°C° 0 mm 2 mps 760 mmHg 25%
    21:00 +28°C° 0 mm 2 mps 761 mmHg 25%
    22:00 +27°C° 0 mm 2 mps 761 mmHg 26%
    23:00 +27°C° 0 mm 2 mps 761 mmHg 26%

    20 Noviembre, Martes

    Tiempo Temperatura Precipitaciones Viento Presión Humedad
    00:00 +26°C° 0 mm 2 mps 761 mmHg 26%
    01:00 +26°C° 0 mm 1 mps 760 mmHg 26%
    02:00 +26°C° 0 mm 1 mps 760 mmHg 27%
    03:00 +25°C° 0 mm 1 mps 760 mmHg 27%
    04:00 +25°C° 0 mm 1 mps 760 mmHg 27%
    05:00 +24°C° 0 mm 1 mps 761 mmHg 28%
    06:00 +24°C° 0 mm 1 mps 761 mmHg 28%
    07:00 +24°C° 0 mm 1 mps 761 mmHg 28%
    08:00 +26°C° 0 mm 1 mps 762 mmHg 24%
    09:00 +28°C° 0 mm 1 mps 762 mmHg 21%
    10:00 +30°C° 0 mm 1 mps 763 mmHg 18%
    11:00 +31°C° 0 mm 1 mps 762 mmHg 17%
    12:00 +32°C° 0 mm 1 mps 761 mmHg 15%
    13:00 +32°C° 0 mm 1 mps 760 mmHg 14%
    14:00 +32°C° 0 mm 2 mps 760 mmHg 15%
    15:00 +32°C° 0 mm 2 mps 760 mmHg 15%
    16:00 +32°C° 0 mm 2 mps 760 mmHg 15%
    17:00 +30°C° 0 mm 2 mps 760 mmHg 18%
    18:00 +29°C° 0 mm 2 mps 761 mmHg 22%
    19:00 +28°C° 0 mm 2 mps 761 mmHg 25%
    20:00 +27°C° 0 mm 2 mps 761 mmHg 26%
    21:00 +27°C° 0 mm 2 mps 761 mmHg 26%
    22:00 +26°C° 0 mm 1 mps 761 mmHg 27%
    23:00 +26°C° 0 mm 1 mps 761 mmHg 28%
    Mostrar más